World > North America > United States > New York

Hourly Narrowsburg, NY Regional Weather

Feedback E-mail the Weather

Latest News

Narrowsburg, NY Weather Maps

°F °C°F °C
Narrowsburg Weather Map
UTC Time: 5/25/2022, 20:38
Your Time:

Narrowsburg, NY Regional Weather

Expires:202205252100;;573412
ASUS41 KBGM 252010
RWRBGM

REGIONAL WEATHER ROUNDUP
NATIONAL WEATHER SERVICE BINGHAMTON NY
400 PM EDT WED MAY 25 2022

Note: "fair" indicates few or no clouds below 12,000 feet with no
significant weather and/or obstructions to visibility.

* = Station(s) that does not report precipitation, such as rain, 
snow, etc, also no thunder or fog.


NYZ009-015>018-022>025-036-037-044>046-055>057-062-252100
...Central New York...
  
CITY           SKY/WX    TMP DP  RH WIND       PRES   REMARKS
Binghamton     MOSUNNY   68  50  52 S9        30.28F                  
Cortland       FAIR      72  48  43 S7        30.26F                  
Dansville      PTSUNNY   77  56  48 S13G20    30.20F                  
Elmira         MOSUNNY   75  49  39 S14       30.23F                  
Endicott       CLEAR     72  50  46 S5        30.25F                  
Ithaca         MOSUNNY   74  53  48 S9G17     30.26F                  
Hamilton       CLOUDY    70  50  49 S5        30.29F                  
Monticello     CLOUDY    70  51  51 SE9G17    30.33F                  
Norwich        CLOUDY    72  48  43 SW8       30.30F                  
Oneonta        MOSUNNY   68  48  49 CALM      30.31F                  
Penn Yan       MOSUNNY   74  51  44 SE10G24   30.24F                  
Rome           MOSUNNY   75  53  46 SE10G17   30.27F                  
Seneca Falls   CLEAR     75  48  38 S13       30.23F                  
Sidney         MOSUNNY   72  54  53 SE6       30.28F                  
Skaneateles    CLOUDY    72  54  53 SE9       30.25F                  
Syracuse       PTSUNNY   73  53  49 E9        30.25F                  
$$
 

SKY/WX - Weather  TMP - Temperature  DP - Dew Point  RH - Humidity
WIND - Wind Direction/Speed PRES - Barometric Pressure VSB - Visibility
WCI - Wind Chill Index E13G22 Wind - East Wind 13 mph/Gusts of 22 mph

Trending Headlines

Narrowsburg Radar Loop



Narrowsburg Quick Facts


National Two Day Weather Forecast


E-mail the Narrowsburg Weather Forecast

Voice your opinion or tell us about page issues...